Time,TemperatureF,DewpointF,PressureIn,WindDirection,WindDirectionDegrees,WindSpeedMPH,WindSpeedGustMPH,Humidity,HourlyPrecipIn,Conditions,Clouds,dailyrainin,SoftwareType,DateUTC
2013-03-09 00:11:00,24.3,22.0,29.51,North,360,2.0,-999.0,91,-99.99,,,0.00,weatherlink.com 1.10,2013-03-09 07:11:00,
2013-03-09 00:26:00,24.6,22.0,29.50,NNW,337,2.0,-999.0,91,-99.99,,,0.00,weatherlink.com 1.10,2013-03-09 07:26:00,
2013-03-09 00:41:00,24.6,22.0,29.49,North,360,6.0,-999.0,91,-99.99,,,0.00,weatherlink.com 1.10,2013-03-09 07:41:00,
2013-03-09 00:56:00,24.6,22.0,29.49,North,360,2.0,-999.0,91,-99.99,,,0.00,weatherlink.com 1.10,2013-03-09 07:56:00,
2013-03-09 01:11:00,24.6,22.0,29.49,North,360,1.0,-999.0,91,-99.99,,,0.00,weatherlink.com 1.10,2013-03-09 08:11:00,
2013-03-09 01:26:00,25.2,23.0,29.49,North,360,0.0,-999.0,91,-99.99,,,0.00,weatherlink.com 1.10,2013-03-09 08:26:00,
2013-03-09 01:41:00,25.2,23.0,29.48,North,360,4.0,-999.0,90,-99.99,,,0.00,weatherlink.com 1.10,2013-03-09 08:41:00,
2013-03-09 01:56:00,25.4,23.0,29.48,North,360,2.0,-999.0,90,-99.99,,,0.00,weatherlink.com 1.10,2013-03-09 08:56:00,
2013-03-09 02:11:00,25.2,22.0,29.48,SSE,148,2.0,-999.0,89,-99.99,,,0.00,weatherlink.com 1.10,2013-03-09 09:11:00,
2013-03-09 02:26:00,24.9,22.0,29.48,SE,134,5.0,-999.0,89,-99.99,,,0.00,weatherlink.com 1.10,2013-03-09 09:26:00,
2013-03-09 02:41:00,24.6,22.0,29.48,SE,133,0.0,-999.0,90,-99.99,,,0.00,weatherlink.com 1.10,2013-03-09 09:41:00,
2013-03-09 02:56:00,24.6,22.0,29.48,SE,133,0.0,-999.0,90,-99.99,,,0.00,weatherlink.com 1.10,2013-03-09 09:56:00,
2013-03-09 03:11:00,24.6,22.0,29.48,SE,133,0.0,-999.0,90,-99.99,,,0.00,weatherlink.com 1.10,2013-03-09 10:11:00,
2013-03-09 03:26:00,24.5,22.0,29.47,SE,133,0.0,-999.0,90,-99.99,,,0.00,weatherlink.com 1.10,2013-03-09 10:26:00,
2013-03-09 03:41:00,24.5,22.0,29.47,SE,133,0.0,-999.0,90,-99.99,,,0.00,weatherlink.com 1.10,2013-03-09 10:41:00,
2013-03-09 03:56:00,24.7,23.0,29.47,SE,133,0.0,-999.0,91,-99.99,,,0.00,weatherlink.com 1.10,2013-03-09 10:56:00,
2013-03-09 04:11:00,25.0,23.0,29.48,SE,133,0.0,-999.0,91,-99.99,,,0.00,weatherlink.com 1.10,2013-03-09 11:11:00,
2013-03-09 04:26:00,25.5,23.0,29.49,SE,141,5.0,-999.0,91,-99.99,,,0.00,weatherlink.com 1.10,2013-03-09 11:26:00,
2013-03-09 04:41:00,25.4,23.0,29.49,SE,138,0.0,-999.0,90,-99.99,,,0.00,weatherlink.com 1.10,2013-03-09 11:41:00,
2013-03-09 04:57:00,25.3,23.0,29.50,SE,138,0.0,-999.0,90,-99.99,,,0.00,weatherlink.com 1.10,2013-03-09 11:57:00,
2013-03-09 05:12:00,25.3,23.0,29.49,East,82,2.0,-999.0,90,-99.99,,,0.00,weatherlink.com 1.10,2013-03-09 12:12:00,
2013-03-09 05:27:00,25.4,23.0,29.50,NE,55,2.0,-999.0,91,-99.99,,,0.00,weatherlink.com 1.10,2013-03-09 12:27:00,
2013-03-09 05:42:00,25.3,23.0,29.51,ENE,61,0.0,-999.0,90,-99.99,,,0.00,weatherlink.com 1.10,2013-03-09 12:42:00,
2013-03-09 05:57:00,25.2,23.0,29.52,ESE,117,2.0,-999.0,90,-99.99,,,0.00,weatherlink.com 1.10,2013-03-09 12:57:00,
2013-03-09 06:12:00,25.0,23.0,29.53,ESE,117,0.0,-999.0,90,-99.99,,,0.00,weatherlink.com 1.10,2013-03-09 13:12:00,
2013-03-09 06:27:00,24.9,22.0,29.53,ESE,117,0.0,-999.0,90,-99.99,,,0.00,weatherlink.com 1.10,2013-03-09 13:27:00,
2013-03-09 06:42:00,25.2,23.0,29.54,ESE,117,0.0,-999.0,91,-99.99,,,0.00,weatherlink.com 1.10,2013-03-09 13:42:00,
2013-03-09 06:57:00,25.2,23.0,29.55,North,360,3.0,-999.0,91,-99.99,,,0.00,weatherlink.com 1.10,2013-03-09 13:57:00,
2013-03-09 07:12:00,25.2,23.0,29.55,ENE,58,6.0,-999.0,91,-99.99,,,0.00,weatherlink.com 1.10,2013-03-09 14:12:00,
2013-03-09 07:27:00,25.2,23.0,29.54,North,360,4.0,-999.0,91,-99.99,,,0.00,weatherlink.com 1.10,2013-03-09 14:27:00,
2013-03-09 07:42:00,25.2,23.0,29.55,North,360,8.0,-999.0,91,-99.99,,,0.00,weatherlink.com 1.10,2013-03-09 14:42:00,
2013-03-09 07:57:00,25.3,23.0,29.55,NNE,32,10.0,-999.0,91,-99.99,,,0.00,weatherlink.com 1.10,2013-03-09 14:57:00,
2013-03-09 08:12:00,25.1,23.0,29.56,NE,38,8.0,-999.0,91,-99.99,,,0.00,weatherlink.com 1.10,2013-03-09 15:12:00,
2013-03-09 08:27:00,25.0,23.0,29.57,NNE,32,3.0,-999.0,91,-99.99,,,0.00,weatherlink.com 1.10,2013-03-09 15:27:00,
2013-03-09 08:42:00,24.9,23.0,29.58,NNE,32,12.0,-999.0,91,-99.99,,,0.00,weatherlink.com 1.10,2013-03-09 15:42:00,
2013-03-09 08:57:00,24.5,22.0,29.59,NE,37,13.0,-999.0,90,-99.99,,,0.00,weatherlink.com 1.10,2013-03-09 15:57:00,
2013-03-09 09:12:00,24.0,22.0,29.59,NE,54,5.0,-999.0,90,-99.99,,,0.00,weatherlink.com 1.10,2013-03-09 16:12:00,
2013-03-09 09:27:00,23.8,21.0,29.60,NNE,30,8.0,-999.0,90,-99.99,,,0.00,weatherlink.com 1.10,2013-03-09 16:27:00,
2013-03-09 09:42:00,24.0,22.0,29.60,NNE,14,14.0,-999.0,91,-99.99,,,0.00,weatherlink.com 1.10,2013-03-09 16:42:00,
2013-03-09 09:57:00,24.0,22.0,29.60,NNW,338,6.0,-999.0,90,-99.99,,,0.00,weatherlink.com 1.10,2013-03-09 16:57:00,
2013-03-09 10:12:00,24.3,22.0,29.61,NNE,19,6.0,-999.0,90,-99.99,,,0.00,weatherlink.com 1.10,2013-03-09 17:12:00,
2013-03-09 10:27:00,24.5,22.0,29.62,North,360,11.0,-999.0,91,-99.99,,,0.00,weatherlink.com 1.10,2013-03-09 17:27:00,
2013-03-09 10:42:00,25.2,23.0,29.63,North,360,14.0,-999.0,91,-99.99,,,0.00,weatherlink.com 1.10,2013-03-09 17:42:00,
2013-03-09 10:57:00,24.8,22.0,29.63,NW,317,13.0,-999.0,89,-99.99,,,0.00,weatherlink.com 1.10,2013-03-09 17:57:00,
2013-03-09 11:12:00,23.7,21.0,29.65,North,360,25.0,-999.0,88,-99.99,,,0.00,weatherlink.com 1.10,2013-03-09 18:12:00,
2013-03-09 11:27:00,23.3,21.0,29.65,North,9,27.0,-999.0,89,-99.99,,,0.00,weatherlink.com 1.10,2013-03-09 18:27:00,
2013-03-09 11:42:00,23.8,21.0,29.66,North,360,15.0,-999.0,90,-99.99,,,0.00,weatherlink.com 1.10,2013-03-09 18:42:00,
2013-03-09 11:57:00,23.9,21.0,29.66,North,360,10.0,-999.0,88,-99.99,,,0.00,weatherlink.com 1.10,2013-03-09 18:57:00,
2013-03-09 12:12:00,23.1,20.0,29.68,North,360,13.0,-999.0,89,-99.99,,,0.00,weatherlink.com 1.10,2013-03-09 19:12:00,
2013-03-09 12:27:00,22.5,20.0,29.68,NNE,25,16.0,-999.0,89,-99.99,,,0.00,weatherlink.com 1.10,2013-03-09 19:27:00,
2013-03-09 12:42:00,22.2,20.0,29.68,NNW,348,12.0,-999.0,89,-99.99,,,0.00,weatherlink.com 1.10,2013-03-09 19:42:00,
2013-03-09 12:57:00,22.2,20.0,29.69,North,9,14.0,-999.0,90,-99.99,,,0.00,weatherlink.com 1.10,2013-03-09 19:57:00,
2013-03-09 13:12:00,22.4,20.0,29.70,North,350,6.0,-999.0,90,-99.99,,,0.00,weatherlink.com 1.10,2013-03-09 20:12:00,
2013-03-09 13:27:00,23.3,21.0,29.70,NNE,16,8.0,-999.0,90,-99.99,,,0.00,weatherlink.com 1.10,2013-03-09 20:27:00,
2013-03-09 13:42:00,24.1,22.0,29.70,North,360,6.0,-999.0,90,-99.99,,,0.00,weatherlink.com 1.10,2013-03-09 20:42:00,
2013-03-09 13:57:00,24.1,21.0,29.70,North,360,20.0,-999.0,89,-99.99,,,0.00,weatherlink.com 1.10,2013-03-09 20:57:00,
2013-03-09 14:12:00,23.5,20.0,29.72,North,9,11.0,-999.0,87,-99.99,,,0.00,weatherlink.com 1.10,2013-03-09 21:12:00,
2013-03-09 14:27:00,23.7,21.0,29.72,North,5,11.0,-999.0,88,-99.99,,,0.00,weatherlink.com 1.10,2013-03-09 21:27:00,
2013-03-09 14:42:00,23.7,20.0,29.73,North,360,15.0,-999.0,87,-99.99,,,0.00,weatherlink.com 1.10,2013-03-09 21:42:00,
2013-03-09 14:57:00,23.3,20.0,29.74,North,360,19.0,-999.0,87,-99.99,,,0.00,weatherlink.com 1.10,2013-03-09 21:57:00,
2013-03-09 15:12:00,22.9,20.0,29.76,NNW,340,22.0,-999.0,87,-99.99,,,0.00,weatherlink.com 1.10,2013-03-09 22:12:00,
2013-03-09 15:27:00,22.1,19.0,29.77,North,360,15.0,-999.0,87,-99.99,,,0.00,weatherlink.com 1.10,2013-03-09 22:27:00,
2013-03-09 15:43:00,22.1,19.0,29.79,NW,315,12.0,-999.0,86,-99.99,,,0.00,weatherlink.com 1.10,2013-03-09 22:43:00,
2013-03-09 15:58:00,22.3,19.0,29.80,NNW,336,20.0,-999.0,85,-99.99,,,0.00,weatherlink.com 1.10,2013-03-09 22:58:00,
2013-03-09 16:13:00,22.4,19.0,29.81,North,360,14.0,-999.0,86,-99.99,,,0.00,weatherlink.com 1.10,2013-03-09 23:13:00,
2013-03-09 16:28:00,22.2,18.0,29.82,North,355,17.0,-999.0,85,-99.99,,,0.00,weatherlink.com 1.10,2013-03-09 23:28:00,
2013-03-09 16:43:00,21.3,17.0,29.83,North,360,19.0,-999.0,82,-99.99,,,0.00,weatherlink.com 1.10,2013-03-09 23:43:00,
2013-03-09 16:58:00,20.7,16.0,29.85,North,360,17.0,-999.0,82,-99.99,,,0.00,weatherlink.com 1.10,2013-03-09 23:58:00,
2013-03-09 17:13:00,20.4,15.0,29.86,North,360,30.0,-999.0,80,-99.99,,,0.00,weatherlink.com 1.10,2013-03-10 00:13:00,
2013-03-09 17:28:00,20.4,15.0,29.86,North,360,24.0,-999.0,79,-99.99,,,0.00,weatherlink.com 1.10,2013-03-10 00:28:00,
2013-03-09 17:43:00,20.6,15.0,29.88,NW,317,19.0,-999.0,79,-99.99,,,0.00,weatherlink.com 1.10,2013-03-10 00:43:00,
2013-03-09 17:58:00,20.0,14.0,29.90,NNW,328,28.0,-999.0,77,-99.99,,,0.00,weatherlink.com 1.10,2013-03-10 00:58:00,
2013-03-09 18:13:00,19.4,13.0,29.92,NW,316,21.0,-999.0,76,-99.99,,,0.00,weatherlink.com 1.10,2013-03-10 01:13:00,
2013-03-09 18:28:00,18.3,12.0,29.92,North,360,23.0,-999.0,77,-99.99,,,0.00,weatherlink.com 1.10,2013-03-10 01:28:00,
2013-03-09 18:43:00,17.8,12.0,29.92,NNW,327,29.0,-999.0,77,-99.99,,,0.00,weatherlink.com 1.10,2013-03-10 01:43:00,
2013-03-09 18:58:00,17.3,11.0,29.94,North,355,22.0,-999.0,77,-99.99,,,0.00,weatherlink.com 1.10,2013-03-10 01:58:00,
2013-03-09 19:13:00,17.2,11.0,29.95,North,360,26.0,-999.0,78,-99.99,,,0.00,weatherlink.com 1.10,2013-03-10 02:13:00,
2013-03-09 19:28:00,17.0,11.0,29.98,North,360,24.0,-999.0,77,-99.99,,,0.00,weatherlink.com 1.10,2013-03-10 02:28:00,
2013-03-09 19:43:00,17.0,11.0,29.98,North,360,11.0,-999.0,76,-99.99,,,0.00,weatherlink.com 1.10,2013-03-10 02:43:00,
2013-03-09 19:58:00,16.8,11.0,29.99,North,360,21.0,-999.0,77,-99.99,,,0.00,weatherlink.com 1.10,2013-03-10 02:58:00,
2013-03-09 20:14:00,16.8,11.0,30.00,North,360,26.0,-999.0,79,-99.99,,,0.00,weatherlink.com 1.10,2013-03-10 03:14:00,
2013-03-09 20:29:00,17.5,12.0,30.02,North,360,14.0,-999.0,80,-99.99,,,0.00,weatherlink.com 1.10,2013-03-10 03:29:00,
2013-03-09 20:44:00,17.3,12.0,30.03,North,360,17.0,-999.0,79,-99.99,,,0.00,weatherlink.com 1.10,2013-03-10 03:44:00,
2013-03-09 20:59:00,16.7,12.0,30.04,NW,325,17.0,-999.0,83,-99.99,,,0.00,weatherlink.com 1.10,2013-03-10 03:59:00,
2013-03-09 21:14:00,16.7,12.0,30.05,North,355,19.0,-999.0,81,-99.99,,,0.00,weatherlink.com 1.10,2013-03-10 04:14:00,
2013-03-09 21:29:00,16.5,12.0,30.06,North,360,19.0,-999.0,83,-99.99,,,0.00,weatherlink.com 1.10,2013-03-10 04:29:00,
2013-03-09 21:44:00,16.2,11.0,30.07,North,360,16.0,-999.0,81,-99.99,,,0.00,weatherlink.com 1.10,2013-03-10 04:44:00,
2013-03-09 21:59:00,16.2,11.0,30.08,North,360,11.0,-999.0,80,-99.99,,,0.00,weatherlink.com 1.10,2013-03-10 04:59:00,
2013-03-09 22:14:00,15.9,11.0,30.10,North,5,7.0,-999.0,81,-99.99,,,0.00,weatherlink.com 1.10,2013-03-10 05:14:00,
2013-03-09 22:29:00,15.7,11.0,30.09,NNE,18,5.0,-999.0,81,-99.99,,,0.00,weatherlink.com 1.10,2013-03-10 05:29:00,
2013-03-09 22:44:00,15.5,10.0,30.09,NW,325,11.0,-999.0,80,-99.99,,,0.00,weatherlink.com 1.10,2013-03-10 05:44:00,
2013-03-09 22:59:00,15.1,8.0,30.08,North,360,27.0,-999.0,74,-99.99,,,0.00,weatherlink.com 1.10,2013-03-10 05:59:00,
2013-03-09 23:14:00,14.6,8.0,30.08,NW,315,22.0,-999.0,74,-99.99,,,0.00,weatherlink.com 1.10,2013-03-10 06:14:00,
2013-03-09 23:29:00,15.0,8.0,30.09,North,355,18.0,-999.0,73,-99.99,,,0.00,weatherlink.com 1.10,2013-03-10 06:29:00,
2013-03-09 23:45:00,14.4,8.0,30.10,North,360,11.0,-999.0,74,-99.99,,,0.00,weatherlink.com 1.10,2013-03-10 06:45:00,